Flag for Brazil Weather past 2 weeks in Santos, São Paulo, Brazil

Now
68 °F

Sunny.


Feels Like: 68 °F
Forecast: 72 / 84 °F
Wind: 6 mph from South

Location: Sao Paulo Airport

Current Time: Mar 27, 2015 at 7:32:41 AM

Latest Report: Mar 27, 2015 at 7:00 AM


Visibility: 10 mi

Pressure: 30.09 "Hg

Humidity: 83%

Dew point: 63 °F

Location of SantosLocation

Historic Weather in Santos — Graph

°F

Santos temperature yesterday

Maximum temperature yesterday: 84 °F (at 2:00 PM)
Minimum temperature yesterday: 66 °F (at 3:00 AM)
Average temperature yesterday: 73 °F

Past Weeks' High & Low Weather Summary

 TemperatureHumidityPressure
High84 °F (Mar 16, 2:00 PM)94% (Mar 19, 5:00 PM)30.24 "Hg (Mar 19, 5:00 PM)
Low61 °F (Mar 25, 6:00 AM)27% (Mar 20, 4:00 PM)29.89 "Hg (Mar 21, 3:00 PM)
Average70 °F77%30.07 "Hg
* Reported Mar 12 6:00 AM — Mar 27 6:00 AM, Santos, Weather by CustomWeather, © 2015

Note: Actual official high and low records may vary slightly from our data, if they occured in-between our weather recording intervals... More about our weather records

Advertising

Santos weather history for previous 24 hours

 ConditionsComfort  
Time TempWeatherWind HumidityBarometerVisibility
6:00 AM
Fri, Mar 27
66 °FSunny.5 mph83%30.09 "Hg10 mi
5:00 AM68 °FClear.2 mph83%30.07 "Hg10 mi
4:00 AM68 °FClear.No wind83%30.07 "Hg10 mi
3:00 AM70 °FClear.1 mph73%30.07 "Hg10 mi
2:00 AM70 °FClear.1 mph73%30.07 "Hg10 mi
1:00 AM70 °FClear.3 mph73%30.07 "Hg10 mi
12:00 AM70 °FClear.No wind73%30.07 "Hg10 mi
11:00 PM
Thu, Mar 26
70 °FClear.3 mph73%30.07 "Hg10 mi
10:00 PM72 °FClear.8 mph78%30.07 "Hg10 mi
9:00 PM72 °FClear.9 mph78%30.07 "Hg10 mi
8:00 PM72 °FClear.8 mph78%30.04 "Hg10 mi
7:00 PM75 °FClear.9 mph69%30.01 "Hg10 mi
6:00 PM81 °FClear.8 mph45%29.98 "Hg10 mi
5:00 PM84 °FSunny.7 mph37%29.98 "Hg10 mi
4:00 PM84 °FSunny.12 mph40%29.98 "Hg10 mi
3:00 PM84 °FSunny.12 mph43%30.01 "Hg10 mi
2:00 PM84 °FScattered clouds.10 mph43%30.01 "HgN/A
1:00 PM82 °FScattered clouds.10 mph48%30.04 "HgN/A
12:00 PM81 °FPassing clouds.7 mph51%30.07 "HgN/A
11:00 AM77 °FSunny.5 mph54%30.09 "Hg10 mi
10:00 AM73 °FSunny.5 mph69%30.09 "Hg10 mi
9:00 AM70 °FClear.5 mph73%30.12 "HgN/A
8:00 AM68 °FPassing clouds.5 mph83%30.09 "Hg5 mi
7:00 AM66 °FScattered clouds.5 mph83%30.07 "HgN/A
Weather by CustomWeather, © 2015

See weather overviewHow to use our weather pages